Phoenix Deer Valley, AZ

1:47 AM MST on November 12, 2019 (GMT -0700)
Phoenix-Deer Valley Municipal

Weather History for KDVT - July, 2019

Change the Weather History Date:

Wednesday, July 10, 2019

  Actual Average Record
Temperature  
Mean Temperature 92 °F -  
Max Temperature 108 °F 101 °F 111 °F (1998)
Min Temperature 75 °F 79 °F 71 °F (2008)
Cooling Degree Days 26    
Growing Degree Days 42 (Base 50)    
Moisture  
Dew Point 36 °F    
Average Humidity 13    
Maximum Humidity 19    
Minimum Humidity 9    
Precipitation  
Precipitation 0.00 in - - ()
Sea Level Pressure  
Sea Level Pressure 29.84 in    
Wind  
Wind Speed 4 mph (West)    
Max Wind Speed 14 mph    
Max Gust Speed 22 mph    
Visibility 10 miles    
Events      
Averages and records for this station are not official NWS values.
T = Trace of Precipitation, MM = Missing Value Source: NWS Daily Summary

Daily Weather History Graph

Daily Weather History Graph

Search for Another Location

Airport or City:

Astronomy

Jul. 10, 2019 Rise Set
Actual Time 5:25 AM MST 7:41 PM MST
Civil Twilight 4:57 AM MST 8:09 PM MST
Nautical Twilight 4:22 AM MST 8:44 PM MST
Astronomical Twilight 3:44 AM MST 9:22 PM MST
Moon 2:02 PM MST (7/10) 12:54 AM MST (7/10)
Length of Visible Light 15h 12m
Length of Day
14h 15m
Waxing Gibbous, 65% of the Moon is Illuminated
Jul 10
Waxing Gibbous
Jul 16
Full
Jul 24
Last Quarter
Jul 31
New
Aug 7
First Quarter

Hourly Weather History & Observations

Time (MST) Temp. Dew Point Humidity Pressure Visibility Wind Dir Wind Speed Gust Speed Precip Events Conditions
12:53 AM 82.0 °F 30.0 °F 15% 29.85 in 10.0 mi NNE 3.5 mph - N/A   Clear
1:53 AM 84.0 °F 28.9 °F 14% 29.85 in 10.0 mi NNE 8.1 mph - N/A   Clear
2:53 AM 82.0 °F 28.0 °F 14% 29.85 in 10.0 mi Calm Calm - N/A   Clear
3:53 AM 79.0 °F 28.0 °F 15% 29.85 in 10.0 mi NE 3.5 mph - N/A   Clear
4:53 AM 78.1 °F 30.0 °F 17% 29.86 in 10.0 mi Calm Calm - N/A   Clear
5:53 AM 75.9 °F 30.0 °F 19% 29.88 in 10.0 mi Calm Calm - N/A   Clear
6:53 AM 84.0 °F 34.0 °F 17% 29.89 in 10.0 mi NE 3.5 mph - N/A   Clear
7:53 AM 88.0 °F 34.0 °F 15% 29.91 in 10.0 mi Calm Calm - N/A   Clear
8:53 AM 91.0 °F 37.9 °F 15% 29.91 in 10.0 mi Calm Calm - N/A   Clear
9:53 AM 93.9 °F 35.1 °F 13% 29.91 in 10.0 mi Calm Calm - N/A   Clear
10:53 AM 98.1 °F 35.1 °F 11% 29.91 in 10.0 mi SW 8.1 mph - N/A   Clear
11:53 AM 100.0 °F 37.0 °F 11% 29.90 in 10.0 mi WSW 5.8 mph - N/A   Clear
12:53 PM 104.0 °F 35.1 °F 9% 29.88 in 10.0 mi WSW 6.9 mph - N/A   Clear
1:53 PM 105.1 °F 37.9 °F 10% 29.85 in 10.0 mi WSW 9.2 mph - N/A   Clear
2:53 PM 108.0 °F 39.0 °F 10% 29.82 in 10.0 mi SSW 9.2 mph - N/A   Clear
3:53 PM 107.1 °F 39.9 °F 10% 29.80 in 10.0 mi West 6.9 mph 17.3 mph N/A   Clear
4:53 PM 107.1 °F 39.9 °F 10% 29.78 in 10.0 mi Variable 6.9 mph 18.4 mph N/A   Clear
5:53 PM 108.0 °F 41.0 °F 10% 29.77 in 10.0 mi WSW 13.8 mph 21.9 mph N/A   Clear
6:53 PM 106.0 °F 39.9 °F 11% 29.77 in 10.0 mi SW 12.7 mph - N/A   Clear
7:53 PM 102.9 °F 39.9 °F 12% 29.77 in 10.0 mi West 10.4 mph - N/A   Clear
8:53 PM 100.0 °F 39.0 °F 12% 29.78 in 10.0 mi West 6.9 mph - N/A   Clear
9:53 PM 98.1 °F 39.0 °F 13% 29.80 in 10.0 mi WNW 5.8 mph - N/A   Clear
10:53 PM 95.0 °F 39.9 °F 15% 29.80 in 10.0 mi NW 4.6 mph - N/A   Clear
11:53 PM 89.1 °F 39.0 °F 17% 29.80 in 10.0 mi Calm Calm - N/A   Clear